Time,TemperatureF,DewpointF,PressureIn,WindDirection,WindDirectionDegrees,WindSpeedMPH,WindSpeedGustMPH,Humidity,HourlyPrecipIn,Conditions,Clouds,dailyrainin,SoftwareType,DateUTC
2013-07-26 00:00:00,63.6,60.9,29.98,SW,228,0.0,0.0,91,0.00,,,0.37,Wunderground v.1.15,2013-07-26 05:00:00,
2013-07-26 00:10:00,63.6,60.9,29.98,SW,231,0.0,2.0,91,0.00,,,0.37,Wunderground v.1.15,2013-07-26 05:10:00,
2013-07-26 00:20:00,63.6,60.9,29.98,SW,231,0.0,1.0,91,0.00,,,0.37,Wunderground v.1.15,2013-07-26 05:20:00,
2013-07-26 00:30:00,63.3,60.6,29.98,SW,231,0.0,1.0,91,0.00,,,0.37,Wunderground v.1.15,2013-07-26 05:30:00,
2013-07-26 00:35:00,63.3,60.6,29.98,SW,231,0.0,1.0,91,0.00,,,0.37,Wunderground v.1.15,2013-07-26 05:35:00,
2013-07-26 00:45:00,63.3,60.6,29.98,SW,231,0.0,2.0,91,0.00,,,0.37,Wunderground v.1.15,2013-07-26 05:45:00,
2013-07-26 00:50:00,63.3,60.6,29.98,SW,231,0.0,1.0,91,0.00,,,0.37,Wunderground v.1.15,2013-07-26 05:50:00,
2013-07-26 00:55:00,63.3,60.6,29.98,SW,231,0.0,2.0,91,0.00,,,0.37,Wunderground v.1.15,2013-07-26 05:55:00,
2013-07-26 01:00:00,63.2,60.5,29.98,SW,231,0.0,0.0,91,0.00,,,0.00,Wunderground v.1.15,2013-07-26 06:00:00,
2013-07-26 01:10:00,63.6,61.2,29.97,SSW,199,0.0,1.0,92,0.00,,,0.00,Wunderground v.1.15,2013-07-26 06:10:00,
2013-07-26 01:20:00,63.9,61.5,29.97,SSE,164,1.0,4.0,92,0.00,,,0.00,Wunderground v.1.15,2013-07-26 06:20:00,
2013-07-26 01:25:00,64.0,61.6,29.97,SW,217,1.0,7.0,92,0.00,,,0.00,Wunderground v.1.15,2013-07-26 06:25:00,
2013-07-26 01:35:00,64.2,61.8,29.97,South,191,2.0,2.0,92,0.00,,,0.00,Wunderground v.1.15,2013-07-26 06:35:00,
2013-07-26 01:40:00,64.3,61.9,29.96,South,172,1.0,1.0,92,0.00,,,0.00,Wunderground v.1.15,2013-07-26 06:40:00,
2013-07-26 01:50:00,64.4,62.0,29.96,South,180,1.0,5.0,92,0.00,,,0.00,Wunderground v.1.15,2013-07-26 06:50:00,
2013-07-26 02:00:00,64.5,62.1,29.96,SSW,213,1.0,1.0,92,0.00,,,0.00,Wunderground v.1.15,2013-07-26 07:00:00,
2013-07-26 02:10:00,64.4,62.0,29.96,SSE,153,1.0,1.0,92,0.00,,,0.00,Wunderground v.1.15,2013-07-26 07:10:00,
2013-07-26 02:20:00,64.3,61.9,29.95,South,175,0.0,3.0,92,0.00,,,0.00,Wunderground v.1.15,2013-07-26 07:20:00,
2013-07-26 02:30:00,64.2,61.8,29.95,South,190,1.0,1.0,92,0.00,,,0.00,Wunderground v.1.15,2013-07-26 07:30:00,
2013-07-26 02:40:00,64.0,61.6,29.95,South,190,0.0,2.0,92,0.00,,,0.00,Wunderground v.1.15,2013-07-26 07:40:00,
2013-07-26 02:45:00,63.9,61.5,29.95,SSW,195,0.0,3.0,92,0.00,,,0.00,Wunderground v.1.15,2013-07-26 07:45:00,
2013-07-26 02:55:00,63.8,61.7,29.95,South,182,1.0,4.0,93,0.00,,,0.00,Wunderground v.1.15,2013-07-26 07:55:00,
2013-07-26 03:00:00,63.6,61.2,29.95,South,182,0.0,0.0,92,0.00,,,0.00,Wunderground v.1.15,2013-07-26 08:00:00,
2013-07-26 03:10:00,63.3,60.9,29.95,South,182,0.0,2.0,92,0.00,,,0.00,Wunderground v.1.15,2013-07-26 08:10:00,
2013-07-26 03:20:00,63.0,60.6,29.95,South,182,0.0,1.0,92,0.00,,,0.00,Wunderground v.1.15,2013-07-26 08:20:00,
2013-07-26 03:25:00,62.9,60.5,29.95,South,182,0.0,1.0,92,0.00,,,0.00,Wunderground v.1.15,2013-07-26 08:25:00,
2013-07-26 03:35:00,62.7,60.6,29.95,South,182,0.0,1.0,93,0.00,,,0.00,Wunderground v.1.15,2013-07-26 08:35:00,
2013-07-26 03:45:00,62.3,60.2,29.95,South,182,0.0,1.0,93,0.00,,,0.00,Wunderground v.1.15,2013-07-26 08:45:00,
2013-07-26 03:55:00,62.4,60.3,29.95,South,188,0.0,2.0,93,0.00,,,0.00,Wunderground v.1.15,2013-07-26 08:55:00,
2013-07-26 04:00:00,62.6,60.5,29.95,West,275,1.0,1.0,93,0.00,,,0.00,Wunderground v.1.15,2013-07-26 09:00:00,
2013-07-26 04:10:00,62.7,60.6,29.95,WNW,283,1.0,3.0,93,0.00,,,0.00,Wunderground v.1.15,2013-07-26 09:10:00,
2013-07-26 04:20:00,62.7,60.6,29.95,West,273,2.0,4.0,93,0.00,,,0.00,Wunderground v.1.15,2013-07-26 09:20:00,
2013-07-26 04:30:00,62.6,60.5,29.95,WNW,285,2.0,7.0,93,0.00,,,0.00,Wunderground v.1.15,2013-07-26 09:30:00,
2013-07-26 04:40:00,62.4,60.3,29.95,West,271,2.0,2.0,93,0.00,,,0.00,Wunderground v.1.15,2013-07-26 09:40:00,
2013-07-26 04:45:00,62.4,60.3,29.95,West,267,3.0,3.0,93,0.00,,,0.00,Wunderground v.1.15,2013-07-26 09:45:00,
2013-07-26 04:55:00,62.0,60.0,29.96,West,271,3.0,8.0,93,0.00,,,0.00,Wunderground v.1.15,2013-07-26 09:55:00,
2013-07-26 05:00:00,61.8,59.8,29.95,West,275,2.0,4.0,93,0.00,,,0.00,Wunderground v.1.15,2013-07-26 10:00:00,
2013-07-26 05:10:00,61.4,59.1,29.96,West,275,3.0,3.0,92,0.00,,,0.00,Wunderground v.1.15,2013-07-26 10:10:00,
2013-07-26 05:20:00,61.0,58.7,29.96,West,273,3.0,3.0,92,0.00,,,0.00,Wunderground v.1.15,2013-07-26 10:20:00,
2013-07-26 05:25:00,60.9,58.6,29.96,West,276,3.0,4.0,92,0.00,,,0.00,Wunderground v.1.15,2013-07-26 10:25:00,
2013-07-26 05:35:00,60.6,58.0,29.97,WNW,292,3.0,8.0,91,0.00,,,0.00,Wunderground v.1.15,2013-07-26 10:35:00,
2013-07-26 05:40:00,60.4,57.8,29.97,West,271,2.0,6.0,91,0.00,,,0.00,Wunderground v.1.15,2013-07-26 10:40:00,
2013-07-26 05:50:00,60.1,57.5,29.97,NNW,344,2.0,6.0,91,0.00,,,0.00,Wunderground v.1.15,2013-07-26 10:50:00,
2013-07-26 06:00:00,59.7,57.1,29.98,West,275,2.0,2.0,91,0.00,,,0.00,Wunderground v.1.15,2013-07-26 11:00:00,
2013-07-26 06:10:00,59.4,56.8,29.98,West,277,2.0,2.0,91,0.00,,,0.01,Wunderground v.1.15,2013-07-26 11:10:00,
2013-07-26 06:20:00,59.1,56.5,29.98,West,275,2.0,2.0,91,0.00,,,0.01,Wunderground v.1.15,2013-07-26 11:20:00,
2013-07-26 06:30:00,58.9,56.3,29.98,West,273,2.0,7.0,91,0.00,,,0.01,Wunderground v.1.15,2013-07-26 11:30:00,
2013-07-26 06:40:00,59.2,56.6,29.99,West,267,3.0,3.0,91,0.00,,,0.01,Wunderground v.1.15,2013-07-26 11:40:00,
2013-07-26 06:50:00,59.2,56.6,29.99,West,275,3.0,7.0,91,0.00,,,0.01,Wunderground v.1.15,2013-07-26 11:50:00,
2013-07-26 07:00:00,59.2,56.6,29.99,West,271,3.0,4.0,91,0.00,,,0.01,Wunderground v.1.15,2013-07-26 12:00:00,
2013-07-26 07:10:00,59.6,56.7,30.00,WNW,287,2.0,6.0,90,0.00,,,0.01,Wunderground v.1.15,2013-07-26 12:10:00,
2013-07-26 07:15:00,59.8,56.9,30.00,WNW,286,3.0,6.0,90,0.00,,,0.01,Wunderground v.1.15,2013-07-26 12:15:00,
2013-07-26 07:25:00,59.8,56.9,30.01,West,279,3.0,12.0,90,0.00,,,0.01,Wunderground v.1.15,2013-07-26 12:25:00,
2013-07-26 07:35:00,59.7,56.8,30.01,West,275,2.0,6.0,90,0.00,,,0.01,Wunderground v.1.15,2013-07-26 12:35:00,
2013-07-26 07:45:00,60.1,57.2,30.01,West,268,2.0,6.0,90,0.00,,,0.01,Wunderground v.1.15,2013-07-26 12:45:00,
2013-07-26 07:55:00,60.4,56.8,30.02,West,270,3.0,9.0,88,0.00,,,0.01,Wunderground v.1.15,2013-07-26 12:55:00,
2013-07-26 08:00:00,60.6,57.0,30.02,West,274,3.0,4.0,88,0.00,,,0.01,Wunderground v.1.15,2013-07-26 13:00:00,
2013-07-26 08:10:00,60.9,57.6,30.02,West,270,3.0,9.0,89,0.00,,,0.01,Wunderground v.1.15,2013-07-26 13:10:00,
2013-07-26 08:15:00,60.9,57.3,30.03,WNW,282,3.0,10.0,88,0.00,,,0.01,Wunderground v.1.15,2013-07-26 13:15:00,
2013-07-26 08:25:00,61.3,57.7,30.03,West,268,3.0,10.0,88,0.00,,,0.01,Wunderground v.1.15,2013-07-26 13:25:00,
2013-07-26 08:35:00,61.4,57.5,30.03,West,281,4.0,11.0,87,0.00,,,0.01,Wunderground v.1.15,2013-07-26 13:35:00,
2013-07-26 08:45:00,61.2,56.7,30.03,NW,307,4.0,11.0,85,0.00,,,0.01,Wunderground v.1.15,2013-07-26 13:45:00,
2013-07-26 08:55:00,61.6,57.0,30.04,NW,314,4.0,10.0,85,0.00,,,0.01,Wunderground v.1.15,2013-07-26 13:55:00,
2013-07-26 09:00:00,61.8,56.9,30.04,WNW,293,4.0,4.0,84,0.00,,,0.01,Wunderground v.1.15,2013-07-26 14:00:00,
2013-07-26 09:10:00,62.2,56.6,30.04,West,271,4.0,11.0,82,0.00,,,0.01,Wunderground v.1.15,2013-07-26 14:10:00,
2013-07-26 09:20:00,62.4,57.2,30.04,West,263,3.0,12.0,83,0.00,,,0.01,Wunderground v.1.15,2013-07-26 14:20:00,
2013-07-26 09:30:00,62.8,56.9,30.04,West,270,3.0,3.0,81,0.00,,,0.01,Wunderground v.1.15,2013-07-26 14:30:00,
2013-07-26 09:40:00,62.8,56.9,30.04,WNW,286,5.0,5.0,81,0.00,,,0.01,Wunderground v.1.15,2013-07-26 14:40:00,
2013-07-26 09:50:00,63.2,57.6,30.05,West,279,4.0,4.0,82,0.00,,,0.01,Wunderground v.1.15,2013-07-26 14:50:00,
2013-07-26 10:00:00,63.6,57.3,30.05,West,274,4.0,4.0,80,0.00,,,0.01,Wunderground v.1.15,2013-07-26 15:00:00,
2013-07-26 10:10:00,62.9,56.3,30.06,West,269,5.0,5.0,79,0.00,,,0.01,Wunderground v.1.15,2013-07-26 15:10:00,
2013-07-26 10:15:00,62.9,56.3,30.06,WSW,255,6.0,6.0,79,0.00,,,0.01,Wunderground v.1.15,2013-07-26 15:15:00,
2013-07-26 10:25:00,62.9,55.6,30.06,West,275,6.0,13.0,77,0.00,,,0.01,Wunderground v.1.15,2013-07-26 15:25:00,
2013-07-26 10:30:00,62.3,55.4,30.06,WNW,288,6.0,6.0,78,0.00,,,0.01,Wunderground v.1.15,2013-07-26 15:30:00,
2013-07-26 10:40:00,61.9,55.3,30.06,WNW,296,5.0,5.0,79,0.00,,,0.01,Wunderground v.1.15,2013-07-26 15:40:00,
2013-07-26 10:50:00,61.9,55.0,30.06,WNW,294,5.0,5.0,78,0.00,,,0.01,Wunderground v.1.15,2013-07-26 15:50:00,
2013-07-26 10:55:00,61.8,55.6,30.07,WNW,282,5.0,11.0,80,0.00,,,0.01,Wunderground v.1.15,2013-07-26 15:55:00,
2013-07-26 11:00:00,61.8,55.9,30.07,West,277,3.0,4.0,81,0.00,,,0.01,Wunderground v.1.15,2013-07-26 16:00:00,
2013-07-26 11:10:00,62.1,55.9,30.07,West,271,3.0,3.0,80,0.00,,,0.01,Wunderground v.1.15,2013-07-26 16:10:00,
2013-07-26 11:20:00,62.1,56.2,30.07,West,277,4.0,8.0,81,0.00,,,0.01,Wunderground v.1.15,2013-07-26 16:20:00,
2013-07-26 11:30:00,62.0,56.1,30.07,West,281,3.0,8.0,81,0.00,,,0.01,Wunderground v.1.15,2013-07-26 16:30:00,
2013-07-26 11:35:00,61.9,55.7,30.07,WNW,290,3.0,10.0,80,0.00,,,0.01,Wunderground v.1.15,2013-07-26 16:35:00,
2013-07-26 11:45:00,62.3,56.7,30.07,WNW,283,4.0,11.0,82,0.00,,,0.01,Wunderground v.1.15,2013-07-26 16:45:00,
2013-07-26 11:55:00,63.1,56.8,30.07,WNW,286,3.0,8.0,80,0.00,,,0.01,Wunderground v.1.15,2013-07-26 16:55:00,
2013-07-26 12:00:00,63.3,56.7,30.07,West,269,4.0,4.0,79,0.00,,,0.01,Wunderground v.1.15,2013-07-26 17:00:00,
2013-07-26 12:10:00,64.3,57.6,30.07,WNW,284,3.0,9.0,79,0.00,,,0.01,Wunderground v.1.15,2013-07-26 17:10:00,
2013-07-26 12:20:00,64.3,56.6,30.07,West,273,4.0,4.0,76,0.00,,,0.01,Wunderground v.1.15,2013-07-26 17:20:00,
2013-07-26 12:30:00,65.1,58.4,30.07,WNW,283,4.0,4.0,79,0.00,,,0.01,Wunderground v.1.15,2013-07-26 17:30:00,
2013-07-26 12:40:00,65.6,58.2,30.07,West,281,4.0,4.0,77,0.00,,,0.01,Wunderground v.1.15,2013-07-26 17:40:00,
2013-07-26 12:50:00,64.9,57.9,30.07,West,270,4.0,7.0,78,0.00,,,0.01,Wunderground v.1.15,2013-07-26 17:50:00,
2013-07-26 13:00:00,65.5,58.1,30.07,West,263,5.0,6.0,77,0.00,,,0.01,Wunderground v.1.15,2013-07-26 18:00:00,
2013-07-26 13:10:00,66.1,57.9,30.07,West,279,5.0,9.0,75,0.00,,,0.01,Wunderground v.1.15,2013-07-26 18:10:00,
2013-07-26 13:20:00,65.7,58.3,30.06,West,277,5.0,14.0,77,0.00,,,0.01,Wunderground v.1.15,2013-07-26 18:20:00,
2013-07-26 13:30:00,65.3,58.6,30.06,WNW,290,5.0,14.0,79,0.00,,,0.01,Wunderground v.1.15,2013-07-26 18:30:00,
2013-07-26 13:40:00,66.7,58.5,30.06,NNW,329,5.0,5.0,75,0.00,,,0.01,Wunderground v.1.15,2013-07-26 18:40:00,
2013-07-26 13:50:00,68.0,59.4,30.05,West,271,5.0,14.0,74,0.00,,,0.01,Wunderground v.1.15,2013-07-26 18:50:00,
2013-07-26 13:55:00,68.7,60.5,30.06,West,271,6.0,14.0,75,0.00,,,0.01,Wunderground v.1.15,2013-07-26 18:55:00,
2013-07-26 14:00:00,68.9,59.1,30.05,WNW,289,5.0,5.0,71,0.00,,,0.01,Wunderground v.1.15,2013-07-26 19:00:00,
2013-07-26 14:10:00,69.3,59.1,30.05,West,275,5.0,5.0,70,0.00,,,0.01,Wunderground v.1.15,2013-07-26 19:10:00,
2013-07-26 14:20:00,67.3,58.3,30.05,NW,317,4.0,4.0,73,0.00,,,0.01,Wunderground v.1.15,2013-07-26 19:20:00,
2013-07-26 14:30:00,67.1,57.4,30.06,West,281,5.0,5.0,71,0.00,,,0.01,Wunderground v.1.15,2013-07-26 19:30:00,
2013-07-26 14:35:00,67.1,57.8,30.06,West,275,5.0,16.0,72,0.00,,,0.01,Wunderground v.1.15,2013-07-26 19:35:00,
2013-07-26 14:45:00,68.7,58.9,30.05,West,273,4.0,7.0,71,0.00,,,0.01,Wunderground v.1.15,2013-07-26 19:45:00,
2013-07-26 14:55:00,69.1,58.9,30.05,WNW,286,4.0,13.0,70,0.00,,,0.01,Wunderground v.1.15,2013-07-26 19:55:00,
2013-07-26 15:00:00,68.9,59.1,30.05,WSW,257,4.0,4.0,71,0.00,,,0.01,Wunderground v.1.15,2013-07-26 20:00:00,
2013-07-26 15:10:00,70.6,57.8,30.05,NNW,336,3.0,12.0,64,0.00,,,0.01,Wunderground v.1.15,2013-07-26 20:10:00,
2013-07-26 15:20:00,67.8,56.4,30.06,West,259,4.0,9.0,67,0.00,,,0.01,Wunderground v.1.15,2013-07-26 20:20:00,
2013-07-26 15:30:00,68.0,57.0,30.06,West,273,4.0,10.0,68,0.00,,,0.01,Wunderground v.1.15,2013-07-26 20:30:00,
2013-07-26 15:40:00,68.6,58.4,30.06,West,278,4.0,12.0,70,0.00,,,0.01,Wunderground v.1.15,2013-07-26 20:40:00,
2013-07-26 15:50:00,66.8,57.1,30.06,WNW,294,4.0,11.0,71,0.00,,,0.01,Wunderground v.1.15,2013-07-26 20:50:00,
2013-07-26 15:55:00,66.5,57.2,30.06,WNW,288,5.0,12.0,72,0.00,,,0.01,Wunderground v.1.15,2013-07-26 20:55:00,
2013-07-26 16:00:00,66.8,57.9,30.07,NW,308,4.0,7.0,73,0.00,,,0.01,Wunderground v.1.15,2013-07-26 21:00:00,
2013-07-26 16:10:00,67.2,57.1,30.07,West,273,6.0,13.0,70,0.00,,,0.01,Wunderground v.1.15,2013-07-26 21:10:00,
2013-07-26 16:20:00,67.1,57.4,30.07,West,276,5.0,12.0,71,0.00,,,0.01,Wunderground v.1.15,2013-07-26 21:20:00,
2013-07-26 16:30:00,68.1,59.5,30.07,West,277,4.0,13.0,74,0.00,,,0.01,Wunderground v.1.15,2013-07-26 21:30:00,
2013-07-26 16:40:00,67.5,56.6,30.07,NW,308,3.0,10.0,68,0.00,,,0.01,Wunderground v.1.15,2013-07-26 21:40:00,
2013-07-26 16:45:00,67.1,57.4,30.07,West,272,3.0,10.0,71,0.00,,,0.01,Wunderground v.1.15,2013-07-26 21:45:00,
2013-07-26 16:55:00,67.7,58.0,30.08,SW,230,4.0,13.0,71,0.00,,,0.01,Wunderground v.1.15,2013-07-26 21:55:00,
2013-07-26 17:00:00,67.3,57.2,30.08,NW,308,5.0,5.0,70,0.00,,,0.01,Wunderground v.1.15,2013-07-26 22:00:00,
2013-07-26 17:10:00,66.9,57.2,30.08,WSW,254,5.0,5.0,71,0.00,,,0.01,Wunderground v.1.15,2013-07-26 22:10:00,
2013-07-26 17:20:00,66.8,57.5,30.08,North,360,4.0,11.0,72,0.00,,,0.01,Wunderground v.1.15,2013-07-26 22:20:00,
2013-07-26 17:30:00,66.8,57.9,30.08,West,272,3.0,17.0,73,0.00,,,0.01,Wunderground v.1.15,2013-07-26 22:30:00,
2013-07-26 17:35:00,66.9,56.8,30.08,SW,227,3.0,17.0,70,0.00,,,0.01,Wunderground v.1.15,2013-07-26 22:35:00,
2013-07-26 17:45:00,67.9,57.4,30.08,WSW,253,4.0,12.0,69,0.00,,,0.01,Wunderground v.1.15,2013-07-26 22:45:00,
2013-07-26 17:55:00,66.9,57.6,30.08,WNW,284,3.0,16.0,72,0.00,,,0.01,Wunderground v.1.15,2013-07-26 22:55:00,
2013-07-26 18:00:00,66.6,57.7,30.08,West,263,2.0,4.0,73,0.00,,,0.01,Wunderground v.1.15,2013-07-26 23:00:00,
2013-07-26 18:10:00,66.4,57.9,30.08,West,272,3.0,3.0,74,0.00,,,0.01,Wunderground v.1.15,2013-07-26 23:10:00,
2013-07-26 18:15:00,66.7,57.4,30.07,WNW,291,2.0,13.0,72,0.00,,,0.01,Wunderground v.1.15,2013-07-26 23:15:00,
2013-07-26 18:25:00,67.8,56.9,30.08,West,275,4.0,10.0,68,0.00,,,0.01,Wunderground v.1.15,2013-07-26 23:25:00,
2013-07-26 18:30:00,67.9,56.5,30.07,SW,228,4.0,4.0,67,0.00,,,0.01,Wunderground v.1.15,2013-07-26 23:30:00,
2013-07-26 18:40:00,68.1,56.3,30.07,NNW,329,3.0,9.0,66,0.00,,,0.01,Wunderground v.1.15,2013-07-26 23:40:00,
2013-07-26 18:50:00,67.6,56.2,30.07,WSW,257,2.0,8.0,67,0.00,,,0.01,Wunderground v.1.15,2013-07-26 23:50:00,
2013-07-26 18:55:00,66.6,56.1,30.07,North,355,2.0,8.0,69,0.00,,,0.01,Wunderground v.1.15,2013-07-26 23:55:00,
2013-07-26 19:00:00,66.3,57.0,30.07,WNW,303,2.0,2.0,72,0.00,,,0.01,Wunderground v.1.15,2013-07-27 00:00:00,
2013-07-26 19:10:00,67.4,56.9,30.07,NNW,331,3.0,3.0,69,0.00,,,0.01,Wunderground v.1.15,2013-07-27 00:10:00,
2013-07-26 19:20:00,67.5,57.0,30.08,West,278,2.0,8.0,69,0.00,,,0.01,Wunderground v.1.15,2013-07-27 00:20:00,
2013-07-26 19:30:00,67.5,55.7,30.08,WSW,255,3.0,10.0,66,0.00,,,0.01,Wunderground v.1.15,2013-07-27 00:30:00,
2013-07-26 19:35:00,66.5,55.6,30.08,West,264,3.0,10.0,68,0.00,,,0.01,Wunderground v.1.15,2013-07-27 00:35:00,
2013-07-26 19:40:00,65.4,55.4,30.08,NW,310,3.0,3.0,70,0.00,,,0.01,Wunderground v.1.15,2013-07-27 00:40:00,
2013-07-26 19:50:00,65.1,56.2,30.08,WNW,298,1.0,7.0,73,0.00,,,0.01,Wunderground v.1.15,2013-07-27 00:50:00,
2013-07-26 20:00:00,64.6,55.4,30.08,WNW,297,1.0,1.0,72,0.00,,,0.01,Wunderground v.1.15,2013-07-27 01:00:00,
2013-07-26 20:10:00,64.4,55.9,30.09,WNW,286,1.0,7.0,74,0.00,,,0.01,Wunderground v.1.15,2013-07-27 01:10:00,
2013-07-26 20:15:00,64.1,55.3,30.09,WNW,300,1.0,7.0,73,0.00,,,0.01,Wunderground v.1.15,2013-07-27 01:15:00,
2013-07-26 20:25:00,63.7,54.9,30.09,NNE,18,1.0,6.0,73,0.00,,,0.01,Wunderground v.1.15,2013-07-27 01:25:00,
2013-07-26 20:30:00,63.4,53.4,30.09,WSW,242,2.0,7.0,70,0.00,,,0.01,Wunderground v.1.15,2013-07-27 01:30:00,
2013-07-26 20:40:00,62.8,52.9,30.10,WNW,288,3.0,7.0,70,0.00,,,0.01,Wunderground v.1.15,2013-07-27 01:40:00,
2013-07-26 20:50:00,62.1,53.0,30.10,NE,35,1.0,8.0,72,0.00,,,0.01,Wunderground v.1.15,2013-07-27 01:50:00,
2013-07-26 21:00:00,61.3,52.9,30.10,WSW,255,1.0,1.0,74,0.00,,,0.01,Wunderground v.1.15,2013-07-27 02:00:00,
2013-07-26 21:10:00,60.7,53.4,30.10,WNW,290,1.0,4.0,77,0.00,,,0.01,Wunderground v.1.15,2013-07-27 02:10:00,
2013-07-26 21:20:00,60.2,53.0,30.10,West,272,1.0,3.0,77,0.00,,,0.01,Wunderground v.1.15,2013-07-27 02:20:00,
2013-07-26 21:25:00,60.0,53.1,30.11,West,277,1.0,8.0,78,0.00,,,0.01,Wunderground v.1.15,2013-07-27 02:25:00,
2013-07-26 21:35:00,59.6,53.1,30.11,West,263,0.0,3.0,79,0.00,,,0.01,Wunderground v.1.15,2013-07-27 02:35:00,
2013-07-26 21:45:00,59.1,52.9,30.11,West,259,0.0,6.0,80,0.00,,,0.01,Wunderground v.1.15,2013-07-27 02:45:00,
2013-07-26 21:55:00,58.7,52.5,30.11,West,280,1.0,5.0,80,0.00,,,0.01,Wunderground v.1.15,2013-07-27 02:55:00,
2013-07-26 22:00:00,58.5,52.4,30.12,WNW,291,1.0,1.0,80,0.00,,,0.01,Wunderground v.1.15,2013-07-27 03:00:00,
2013-07-26 22:10:00,58.3,52.2,30.13,West,268,1.0,1.0,80,0.00,,,0.01,Wunderground v.1.15,2013-07-27 03:10:00,
2013-07-26 22:15:00,58.2,52.1,30.13,WSW,256,1.0,7.0,80,0.00,,,0.01,Wunderground v.1.15,2013-07-27 03:15:00,
2013-07-26 22:25:00,57.8,51.7,30.13,West,266,0.0,4.0,80,0.00,,,0.01,Wunderground v.1.15,2013-07-27 03:25:00,
2013-07-26 22:35:00,57.5,51.7,30.13,West,275,0.0,4.0,81,0.00,,,0.01,Wunderground v.1.15,2013-07-27 03:35:00,
2013-07-26 22:45:00,57.1,51.7,30.12,West,275,0.0,3.0,82,0.00,,,0.01,Wunderground v.1.15,2013-07-27 03:45:00,
2013-07-26 22:55:00,56.8,51.7,30.13,West,271,0.0,1.0,83,0.00,,,0.01,Wunderground v.1.15,2013-07-27 03:55:00,
2013-07-26 23:00:00,56.6,51.5,30.12,West,271,0.0,0.0,83,0.00,,,0.01,Wunderground v.1.15,2013-07-27 04:00:00,
2013-07-26 23:05:00,56.4,51.3,30.12,West,271,0.0,1.0,83,0.00,,,0.01,Wunderground v.1.15,2013-07-27 04:05:00,
2013-07-26 23:10:00,56.3,51.2,30.12,West,275,0.0,1.0,83,0.00,,,0.01,Wunderground v.1.15,2013-07-27 04:10:00,
2013-07-26 23:15:00,56.1,51.3,30.12,West,275,0.0,2.0,84,0.00,,,0.01,Wunderground v.1.15,2013-07-27 04:15:00,
2013-07-26 23:20:00,56.1,51.3,30.12,West,275,0.0,2.0,84,0.00,,,0.01,Wunderground v.1.15,2013-07-27 04:20:00,
2013-07-26 23:30:00,55.9,51.1,30.12,West,275,0.0,2.0,84,0.00,,,0.01,Wunderground v.1.15,2013-07-27 04:30:00,
2013-07-26 23:35:00,55.8,51.0,30.12,West,275,0.0,2.0,84,0.00,,,0.01,Wunderground v.1.15,2013-07-27 04:35:00,
2013-07-26 23:40:00,55.7,51.3,30.13,West,275,0.0,1.0,85,0.00,,,0.01,Wunderground v.1.15,2013-07-27 04:40:00,
2013-07-26 23:50:00,55.5,51.1,30.12,West,275,0.0,4.0,85,0.00,,,0.01,Wunderground v.1.15,2013-07-27 04:50:00,